Location: Arbon
(43.0005°N, 0.7472°E)
Time: 15:16:56
(UTC+00:00)

Envisat - Pass Details

Date: 04 November 2020
Orbit: 764 x 766 km, 98.1° (Epoch: 30 November)

Event Time Altitude Azimuth Distance (km) Brightness Sun altitude
Rises 05:22:20 0° 20° (NNE) 3,241 6.4 -13.8°
Reaches altitude 10° 05:24:47 10° 28° (NNE) 2,310 5.7 -13.4°
Maximum altitude 05:29:34 40° 98° (E) 1,120 4.5 -12.5°
Drops below altitude 10° 05:34:18 10° 167° (SSE) 2,293 5.8 -11.6°
Sets 05:36:43 0° 175° (S) 3,214 6.4 -11.2°
